DW9657 Weather Reports


Display with metric or nautical units.
time (UTC)temp
F
wind
direction
speed
MPH
gust
MPH
rain 1hr
in
rain 24hr
in
rain mn
in
humidity
%
barometer
mb
20260503203330 59 214 9.0 13.0 0.00 0.00 0.00 61 1010.7
20260503202834 59 205 7.0 13.0 0.00 0.00 0.00 62 1010.7
20260503202331 59 224 8.0 10.0 0.00 0.00 0.00 63 1010.7
20260503201827 59 222 7.0 12.0 0.00 0.00 0.00 63 1010.9
20260503201331 59 229 7.0 13.0 0.00 0.00 0.00 63 1010.8
20260503200833 59 220 7.0 13.0 0.00 0.00 0.00 64 1011.0
20260503200330 58 216 7.0 12.0 0.00 0.00 0.00 65 1011.1
20260503195833 58 214 7.0 12.0 0.00 0.00 0.00 64 1011.1
20260503195349 58 222 8.0 11.0 0.00 0.00 0.00 64 1011.2
20260503194852 59 218 6.0 11.0 0.00 0.00 0.00 63 1011.2
20260503194333 59 219 7.0 11.0 0.00 0.00 0.00 63 1011.3
20260503193832 59 219 7.0 11.0 0.00 0.00 0.00 64 1011.3
20260503193335 59 210 6.0 13.0 0.00 0.00 0.00 62 1011.4
20260503192831 59 214 7.0 13.0 0.00 0.00 0.00 61 1011.3
20260503192335 59 231 8.0 13.0 0.00 0.00 0.00 60 1011.5
20260503191833 59 232 8.0 16.0 0.00 0.00 0.00 61 1011.6
20260503191335 59 216 8.0 16.0 0.00 0.00 0.00 59 1011.7
20260503190831 59 233 8.0 15.0 0.00 0.00 0.00 60 1011.7
20260503190334 59 214 8.0 15.0 0.00 0.00 0.00 62 1011.8
20260503185831 59 218 8.0 13.0 0.00 0.00 0.00 61 1011.9
20260503185336 59 217 8.0 12.0 0.00 0.00 0.00 61 1012.0
20260503184834 59 229 7.0 13.0 0.00 0.00 0.00 62 1012.1
20260503184338 59 210 7.0 12.0 0.00 0.00 0.00 60 1012.1
20260503183833 59 218 8.0 12.0 0.00 0.00 0.00 60 1012.1
20260503183330 59 215 8.0 13.0 0.00 0.00 0.00 61 1012.2
20260503182834 59 214 8.0 13.0 0.00 0.00 0.00 61 1012.3
20260503182331 58 222 6.0 11.0 0.00 0.00 0.00 62 1012.4
20260503181835 58 219 6.0 12.0 0.00 0.00 0.00 64 1012.5
20260503181333 58 218 7.0 17.0 0.00 0.00 0.00 60 1012.6
20260503180836 58 222 9.0 17.0 0.00 0.00 0.00 57 1012.7
20260503180333 58 214 10.0 13.0 0.00 0.00 0.00 57 1012.8
20260503175834 58 232 8.0 15.0 0.00 0.00 0.00 60 1012.8
20260503175351 58 220 10.0 15.0 0.00 0.00 0.00 58 1012.9
20260503174833 57 210 9.0 13.0 0.00 0.00 0.00 60 1012.9
20260503174335 57 234 8.0 14.0 0.00 0.00 0.00 61 1013.0
20260503173851 57 222 8.0 14.0 0.00 0.00 0.00 59 1013.0
20260503173334 57 222 7.0 14.0 0.00 0.00 0.00 61 1013.0
20260503172831 57 210 9.0 13.0 0.00 0.00 0.00 60 1013.1
20260503172336 57 214 7.0 14.0 0.00 0.00 0.00 62 1013.1
20260503171833 57 241 9.0 14.0 0.00 0.00 0.00 62 1013.3
20260503171337 56 218 7.0 16.0 0.00 0.00 0.00 64 1013.2
20260503170832 56 218 9.0 16.0 0.00 0.00 0.00 64 1013.4
20260503170336 56 223 7.0 13.0 0.00 0.00 0.00 63 1013.4
20260503150847 52 214 8.0 12.0 0.00 0.00 0.00 71 1014.2
20260503150349 51 229 6.0 13.0 0.00 0.00 0.00 72 1014.4
20260503131333 47 224 8.0 15.0 0.00 0.00 0.00 70 1014.7
20260503130827 46 224 7.0 13.0 0.00 0.00 0.00 71 1014.7
20260503130351 46 230 8.0 15.0 0.00 0.00 0.00 70 1014.7
20260503110333 42 223 4.0 8.0 0.00 0.00 0.00 74 1014.8
20260503090355 41 222 3.0 5.0 0.00 0.00 0.00 70 1015.0
20260503081326 41 226 3.0 5.0 0.00 0.00 0.00 70 1015.3
20260503080851 41 222 4.0 5.0 0.00 0.00 0.00 71 1015.3
20260503080354 41 222 3.0 5.0 0.00 0.00 0.00 71 1015.3
20260503072836 41 222 2.0 5.0 0.00 0.01 0.00 71 1015.3
20260503072332 41 222 3.0 5.0 0.00 0.01 0.00 70 1015.3
20260503071836 41 222 4.0 6.0 0.00 0.01 0.00 69 1015.4
20260503071332 41 224 5.0 7.0 0.00 0.01 0.00 69 1015.3
20260503070836 41 224 4.0 6.0 0.00 0.01 0.00 69 1015.3
20260503070333 42 219 3.0 4.0 0.00 0.01 0.00 69 1015.4
20260503060333 43 222 3.0 8.0 0.00 0.01 0.00 66 1015.9
20260503054839 43 230 4.0 8.0 0.00 0.01 0.00 67 1015.8
20260503054353 43 229 4.0 8.0 0.00 0.01 0.00 66 1015.9
20260503053820 43 218 4.0 7.0 0.00 0.01 0.00 66 1016.0
20260503053333 43 224 4.0 8.0 0.00 0.01 0.00 66 1015.9
20260503052819 43 224 4.0 8.0 0.00 0.01 0.00 67 1015.9
20260503052331 43 222 3.0 6.0 0.00 0.01 0.00 66 1016.0
20260503051834 43 225 4.0 6.0 0.00 0.01 0.00 66 1016.0
20260503051329 43 222 4.0 6.0 0.00 0.01 0.00 65 1016.1
20260503050832 42 219 4.0 6.0 0.00 0.01 0.00 66 1016.1
20260503050328 42 222 3.0 5.0 0.00 0.01 0.00 67 1016.0
20260503045831 42 224 3.0 5.0 0.00 0.01 0.00 67 1016.1
20260503045325 42 221 3.0 4.0 0.00 0.01 0.00 67 1016.1
20260503044848 42 222 2.0 5.0 0.00 0.01 0.00 66 1016.1
20260503044323 42 220 2.0 4.0 0.00 0.01 0.00 66 1016.0
20260503043826 42 220 3.0 4.0 0.00 0.01 0.00 66 1016.0
20260503043323 42 220 3.0 4.0 0.00 0.01 0.00 66 1016.1
20260503042826 42 221 3.0 4.0 0.00 0.01 0.00 66 1016.2
20260503042322 42 220 3.0 4.0 0.00 0.01 0.00 67 1016.2
20260503041818 42 224 2.0 3.0 0.00 0.01 0.00 66 1016.3
20260503041321 42 224 2.0 3.0 0.00 0.01 0.00 66 1016.2
20260503040844 41 225 2.0 3.0 0.00 0.01 0.00 66 1016.3
20260503040319 41 225 2.0 3.0 0.00 0.01 0.00 66 1016.3
20260503035819 41 225 1.0 2.0 0.00 0.01 0.01 66 1016.3
20260503035336 41 225 1.0 3.0 0.00 0.01 0.01 66 1016.4
20260503034840 41 224 1.0 3.0 0.00 0.01 0.01 65 1016.3
20260503034337 41 227 1.0 2.0 0.00 0.01 0.01 66 1016.3
20260503033840 41 227 0.0 2.0 0.00 0.01 0.01 66 1016.4
20260503033334 41 242 1.0 2.0 0.00 0.01 0.01 66 1016.3
20260503032838 41 263 1.0 2.0 0.00 0.01 0.01 67 1016.4
20260503032334 41 270 1.0 2.0 0.00 0.01 0.01 67 1016.4
20260503031836 41 271 1.0 2.0 0.00 0.01 0.01 67 1016.4
20260503031332 41 271 1.0 2.0 0.00 0.01 0.01 66 1016.5
20260503030835 41 271 1.0 1.0 0.00 0.01 0.01 66 1016.4
20260503030339 41 271 0.0 1.0 0.00 0.01 0.01 65 1016.5
20260503025843 41 271 0.0 1.0 0.00 0.01 0.01 64 1016.4
20260503025356 41 271 0.0 0.0 0.00 0.01 0.01 63 1016.5
20260503024838 42 270 0.0 1.0 0.00 0.01 0.01 63 1016.6
20260503024334 42 271 0.0 1.0 0.00 0.01 0.01 62 1016.6
20260503023837 42 270 0.0 0.0 0.00 0.01 0.01 62 1016.6
20260503023354 42 270 0.0 1.0 0.00 0.01 0.01 61 1016.7
20260503022835 42 271 0.0 1.0 0.00 0.01 0.01 62 1016.7
20260503022330 43 271 0.0 1.0 0.00 0.01 0.01 62 1016.7
20260503021833 43 270 0.0 1.0 0.00 0.01 0.01 62 1016.7
20260503021356 43 271 0.0 1.0 0.00 0.01 0.01 62 1016.7
20260503020852 43 271 0.0 1.0 0.00 0.01 0.01 62 1016.6
20260503020333 43 271 0.0 1.0 0.00 0.01 0.01 61 1016.7
20260503015831 43 271 0.0 1.0 0.00 0.01 0.01 61 1016.6
20260503015334 43 271 0.0 1.0 0.00 0.01 0.01 61 1016.6
20260503014831 43 271 0.0 1.0 0.00 0.01 0.01 62 1016.6
20260503014334 43 271 0.0 1.0 0.00 0.01 0.01 61 1016.6
20260503013829 44 271 0.0 1.0 0.00 0.01 0.01 61 1016.6
20260503013332 44 271 0.0 1.0 0.00 0.01 0.01 61 1016.6
20260503012828 44 271 0.0 1.0 0.00 0.01 0.01 61 1016.6
20260503012323 44 270 0.0 2.0 0.00 0.01 0.01 62 1016.5
20260503011827 44 271 1.0 2.0 0.00 0.01 0.01 61 1016.5
20260503011321 44 271 0.0 2.0 0.00 0.01 0.01 62 1016.5
20260503010844 44 271 1.0 2.0 0.00 0.01 0.01 62 1016.5
20260503010326 44 271 0.0 2.0 0.00 0.01 0.01 61 1016.5
20260503005823 45 271 1.0 2.0 0.00 0.02 0.01 61 1016.5
20260503005325 45 271 1.0 2.0 0.00 0.02 0.01 61 1016.4
20260503004822 45 271 0.0 2.0 0.00 0.02 0.01 61 1016.4
20260503004326 45 271 0.0 1.0 0.00 0.02 0.01 61 1016.4
20260503003822 45 271 0.0 1.0 0.00 0.02 0.01 61 1016.4
20260503003326 45 271 0.0 1.0 0.00 0.02 0.01 61 1016.4
20260503002821 45 271 0.0 1.0 0.00 0.02 0.01 61 1016.3
20260503002325 45 271 0.0 1.0 0.00 0.02 0.01 62 1016.3
20260503001904 45 271 0.0 0.0 0.00 0.02 0.01 62 1016.4
20260503001340 45 271 0.0 0.0 0.00 0.02 0.01 62 1016.3
20260503000823 45 271 0.0 0.0 0.00 0.02 0.01 61 1016.3
20260503000340 46 271 0.0 3.0 0.00 0.02 0.01 60 1016.3
20260502235821 46 271 0.0 3.0 0.00 0.02 0.01 58 1016.4
20260502235317 46 271 1.0 3.0 0.00 0.02 0.01 58 1016.4
20260502234820 46 272 1.0 3.0 0.00 0.02 0.01 58 1016.3
20260502234318 46 270 0.0 4.0 0.00 0.02 0.01 56 1016.3
20260502233336 46 272 3.0 5.0 0.00 0.02 0.01 54 1016.3
20260502232832 46 267 2.0 6.0 0.00 0.02 0.01 55 1016.3
20260502232335 46 260 3.0 6.0 0.00 0.02 0.01 56 1016.3
20260502231830 46 273 2.0 3.0 0.00 0.02 0.01 55 1016.3
20260502231332 46 273 1.0 4.0 0.00 0.02 0.01 57 1016.3
20260502230858 46 274 1.0 4.0 0.00 0.02 0.01 56 1016.3
20260502230354 46 266 1.0 7.0 0.00 0.02 0.01 56 1016.3
20260502225834 46 266 2.0 6.0 0.00 0.06 0.01 56 1016.4
20260502225331 46 264 4.0 6.0 0.00 0.06 0.01 53 1016.4
20260502224835 46 258 4.0 6.0 0.00 0.06 0.01 56 1016.4
20260502224332 46 275 1.0 7.0 0.00 0.06 0.01 55 1016.4
20260502223834 46 259 3.0 7.0 0.00 0.06 0.01 53 1016.4
20260502223330 46 269 2.0 8.0 0.00 0.06 0.01 56 1016.4
20260502222832 46 274 3.0 10.0 0.00 0.06 0.01 55 1016.4
20260502222328 46 259 4.0 7.0 0.00 0.06 0.01 54 1016.4
20260502221823 46 274 3.0 8.0 0.00 0.06 0.01 54 1016.4
20260502221327 46 282 3.0 6.0 0.00 0.06 0.01 54 1016.4
20260502220822 46 266 3.0 6.0 0.00 0.06 0.01 56 1016.4
20260502220326 46 268 2.0 6.0 0.00 0.06 0.01 54 1016.5
20260502215821 46 272 3.0 7.0 0.00 0.07 0.01 54 1016.4
20260502215345 46 272 2.0 7.0 0.00 0.07 0.01 54 1016.5
20260502214819 46 268 4.0 7.0 0.00 0.07 0.01 54 1016.5
20260502214343 46 306 3.0 9.0 0.00 0.07 0.01 53 1016.4
20260502213824 46 260 4.0 10.0 0.00 0.07 0.01 55 1016.4
20260502213320 47 276 1.0 11.0 0.00 0.07 0.01 55 1016.4
20260502212822 47 263 4.0 11.0 0.00 0.07 0.01 53 1016.4
20260502212318 47 272 3.0 5.0 0.00 0.07 0.01 54 1016.4
20260502211820 47 276 1.0 7.0 0.00 0.07 0.01 54 1016.5
20260502211402 47 264 4.0 7.0 0.00 0.07 0.01 55 1016.5
20260502210818 47 281 1.0 5.0 0.00 0.07 0.01 55 1016.4
20260502210340 46 279 3.0 7.0 0.00 0.07 0.01 55 1016.5
20260502205817 46 291 1.0 4.0 0.00 0.07 0.01 53 1016.5
20260502205341 46 280 1.0 7.0 0.00 0.07 0.01 54 1016.5
20260502204837 46 279 3.0 7.0 0.00 0.07 0.01 55 1016.5
20260502204333 46 264 2.0 6.0 0.00 0.07 0.01 56 1016.5
20260502203836 46 275 2.0 12.0 0.00 0.07 0.01 54 1016.5